TimeEDT,TemperatureF,Dew PointF,Humidity,Sea Level PressureIn,VisibilityMPH,Wind Direction,Wind SpeedMPH,Gust SpeedMPH,PrecipitationIn,Events,Conditions,WindDirDegrees,DateUTC
12:36 AM,37.4,37.4,100,29.72,5.0,WNW,11.5,-,N/A,,Overcast,300,2012-11-01 04:36:00
12:51 AM,37.4,37.4,100,29.72,6.0,WNW,15.0,21.9,N/A,,Overcast,300,2012-11-01 04:51:00
12:53 AM,37.9,37.0,97,29.74,6.0,NW,12.7,21.9,N/A,,Overcast,310,2012-11-01 04:53:00
1:53 AM,39.0,37.0,93,29.74,10.0,WNW,12.7,-,0.00,,Overcast,300,2012-11-01 05:53:00
2:41 AM,39.2,37.4,93,29.71,7.0,WNW,10.4,18.4,N/A,,Overcast,290,2012-11-01 06:41:00
2:53 AM,39.0,37.0,93,29.74,9.0,WNW,12.7,-,N/A,,Overcast,300,2012-11-01 06:53:00
3:01 AM,39.2,37.4,93,29.72,10.0,WNW,11.5,-,N/A,,Overcast,290,2012-11-01 07:01:00
3:15 AM,39.2,37.4,93,29.72,7.0,WNW,11.5,-,N/A,,Overcast,300,2012-11-01 07:15:00
3:24 AM,39.2,37.4,93,29.71,5.0,WNW,11.5,-,N/A,,Overcast,300,2012-11-01 07:24:00
3:34 AM,39.2,37.4,93,29.72,6.0,WNW,11.5,19.6,N/A,,Overcast,290,2012-11-01 07:34:00
4:53 AM,39.9,37.0,89,29.74,10.0,WNW,9.2,-,N/A,,Overcast,290,2012-11-01 08:53:00
5:31 AM,39.2,37.4,93,29.72,10.0,WNW,10.4,-,N/A,,Overcast,290,2012-11-01 09:31:00
6:34 AM,39.2,37.4,93,29.73,10.0,West,9.2,-,N/A,,Overcast,280,2012-11-01 10:34:00
6:53 AM,39.9,37.0,89,29.75,10.0,West,8.1,-,N/A,,Overcast,280,2012-11-01 10:53:00
7:53 AM,39.9,37.0,89,29.76,10.0,West,9.2,-,N/A,,Overcast,280,2012-11-01 11:53:00
8:53 AM,39.0,36.0,89,29.78,10.0,WNW,12.7,-,0.00,,Overcast,290,2012-11-01 12:53:00
9:31 AM,39.2,33.8,81,29.76,10.0,WNW,12.7,21.9,N/A,,Partly Cloudy,290,2012-11-01 13:31:00
9:53 AM,39.0,34.0,82,29.79,10.0,WNW,12.7,-,N/A,,Scattered Clouds,300,2012-11-01 13:53:00
10:02 AM,39.2,33.8,81,29.77,10.0,WNW,13.8,21.9,N/A,,Mostly Cloudy,300,2012-11-01 14:02:00
10:53 AM,37.9,32.0,79,29.80,10.0,WNW,10.4,19.6,N/A,,Overcast,300,2012-11-01 14:53:00
11:53 AM,37.9,32.0,79,29.81,10.0,WNW,10.4,-,N/A,,Overcast,290,2012-11-01 15:53:00
12:53 PM,37.9,33.1,83,29.82,10.0,WNW,17.3,20.7,N/A,,Overcast,290,2012-11-01 16:53:00
1:12 PM,37.4,32.0,81,29.79,10.0,WNW,12.7,-,N/A,,Overcast,290,2012-11-01 17:12:00
1:53 PM,37.9,32.0,79,29.81,10.0,WNW,10.4,-,N/A,,Overcast,290,2012-11-01 17:53:00
2:01 PM,37.4,30.2,75,29.78,10.0,WNW,10.4,-,N/A,,Overcast,290,2012-11-01 18:01:00
2:53 PM,44.1,34.0,68,29.78,10.0,NW,9.2,-,N/A,,Mostly Cloudy,310,2012-11-01 18:53:00
3:27 PM,44.6,32.0,61,29.75,10.0,West,9.2,20.7,N/A,,Mostly Cloudy,280,2012-11-01 19:27:00
3:53 PM,45.0,33.1,63,29.77,10.0,West,15.0,21.9,N/A,,Overcast,280,2012-11-01 19:53:00
4:53 PM,45.0,33.1,63,29.77,10.0,West,12.7,20.7,N/A,,Overcast,280,2012-11-01 20:53:00
5:53 PM,43.0,34.0,71,29.78,10.0,West,9.2,-,N/A,,Overcast,280,2012-11-01 21:53:00
6:53 PM,43.0,33.1,68,29.79,10.0,WSW,8.1,-,N/A,,Overcast,240,2012-11-01 22:53:00
7:53 PM,43.0,33.1,68,29.80,10.0,West,6.9,-,N/A,,Overcast,260,2012-11-01 23:53:00
8:53 PM,43.0,32.0,65,29.80,10.0,West,6.9,-,N/A,,Overcast,270,2012-11-02 00:53:00
9:53 PM,43.0,30.9,62,29.81,10.0,West,8.1,-,N/A,,Overcast,280,2012-11-02 01:53:00
10:53 PM,42.1,32.0,67,29.83,10.0,WNW,8.1,-,N/A,,Overcast,290,2012-11-02 02:53:00
11:53 PM,41.0,27.0,57,29.83,10.0,NW,10.4,-,N/A,,Overcast,320,2012-11-02 03:53:00